Forside
METAR-TAF:

METAR-TAF

Lufthavne :

Metcalf Field

Toledo, Ohio, USA

Breddekreds: 41-33-47N, længdekreds: 083-28-35W, højde: 189 m

Aktuelle vejr

Denne rapport blev lavet for 1 time og 3 minutter siden, kl. 16:53 UTC
Vind 11 kt fra øst
Temperatur 3°C
Fugtighed 70%
Tryk 1024 hPa
Sigt: 16.1 km
skyfri

METAR: KTDZ 171653Z AUTO 09011KT 10SM CLR 03/M02 A3024 RMK AO2 SLP245 T00331022

Tid: 12:56 (17:56 UTC)


TAF: fraværende

Vejrobservationer og prognoser fra mere end 4000 lufthavne (METAR og TAF).

De gule og røde prikker repræsenterer de meteorologiske stationer.

Flyt musen over at se navnet på stationen.

Så klik over at se vejr observationer og prognoser.

At skifte det kort: Klik på de grønne knapper med et sort kors for at zoome ind; på den grønne knap med en bindestreg for at zoome ud; eller på de grønne pile for tilstødende kort.


METAR-TAF: